{"data":{"norad_id":46066,"epoch":"2026-09-20T04:00:25.463232Z","epoch_age_seconds":46578,"freshness":"FRESH","line1":"1 46066U 20055AR  26263.16696138  .00223210  00000+0  22204-2 0  9994","line2":"2 46066  53.0424 254.0634 0010950  60.6241 299.5865 15.64429968339317","mean_motion":15.64429968,"eccentricity":0.001095,"inclination_deg":53.0424,"raan_deg":254.0634,"arg_perigee_deg":60.6241,"mean_anomaly_deg":299.5865,"bstar":0.0022204,"rev_number":33931,"period_min":92.046306287582,"perigee_km":367.48410877197,"apogee_km":382.27321306939,"semimajor_km":6753.0156609207,"source":"CELESTRAK","updated_at":"2026-09-20T09:00:38.464265Z"}}